GW5673 Weather Reports


Display with metric or nautical units.
time (UTC)temp
F
wind
direction
speed
MPH
gust
MPH
rain 1hr
in
rain 24hr
in
rain mn
in
humidity
%
barometer
mb
20260510015403 59 98 1.0 3.0 0.00 0.00 0.00 74 1009.5
20260510014503 60 43 1.0 2.0 0.00 0.00 0.00 73 1009.3
20260510013603 60 320 1.0 2.0 0.00 0.00 0.00 70 1009.1
20260510012703 61 320 2.0 3.0 0.00 0.00 0.00 69 1008.8
20260510011803 62 314 3.0 4.0 0.00 0.00 0.00 67 1008.6
20260510010924 62 326 3.0 6.0 0.00 0.00 0.00 66 1008.6
20260510010003 64 250 3.0 9.0 0.00 0.00 0.00 60 1008.2
20260510005424 65 252 3.0 4.0 0.00 0.00 0.00 61 1008.2
20260510004503 65 303 3.0 4.0 0.00 0.00 0.00 61 1008.0
20260510003603 66 263 3.0 4.0 0.00 0.00 0.00 57 1007.8
20260510002703 67 213 3.0 4.0 0.00 0.00 0.00 56 1007.6
20260510001803 68 219 3.0 5.0 0.00 0.00 0.00 55 1007.5
20260510000903 68 225 2.0 4.0 0.00 0.00 0.00 56 1007.3
20260510000003 69 232 2.0 3.0 0.00 0.00 0.00 54 1007.4
20260509235403 70 231 3.0 5.0 0.00 0.00 0.00 53 1007.4
20260509234524 71 226 3.0 4.0 0.00 0.00 0.00 51 1007.3
20260509233603 72 212 2.0 4.0 0.00 0.00 0.00 50 1007.3
20260509232703 72 187 1.0 4.0 0.00 0.00 0.00 51 1007.4
20260509231824 72 204 1.0 2.0 0.00 0.00 0.00 52 1007.2
20260509230924 71 190 1.0 5.0 0.00 0.00 0.00 51 1007.2
20260509230003 71 207 3.0 6.0 0.00 0.00 0.00 49 1007.1
20260509225403 71 206 3.0 6.0 0.00 0.00 0.00 49 1006.9
20260509224503 72 199 4.0 8.0 0.00 0.00 0.00 48 1007.2
20260509223603 72 190 4.0 7.0 0.00 0.00 0.00 47 1007.1
20260509222703 72 170 3.0 7.0 0.00 0.00 0.00 48 1007.2
20260509221803 72 176 3.0 8.0 0.00 0.00 0.00 48 1007.1
20260509220903 72 171 4.0 8.0 0.00 0.00 0.00 46 1007.1
20260509220003 73 176 5.0 10.0 0.00 0.00 0.00 45 1007.0
20260509215403 73 174 5.0 10.0 0.00 0.00 0.00 44 1006.9
20260509214503 73 183 6.0 14.0 0.00 0.00 0.00 45 1007.1
20260509213624 74 180 7.0 14.0 0.00 0.00 0.00 45 1006.9
20260509212703 74 173 5.0 15.0 0.00 0.00 0.00 42 1006.9
20260509211803 73 174 4.0 9.0 0.00 0.00 0.00 45 1006.7
20260509210903 73 186 4.0 9.0 0.00 0.00 0.00 44 1006.9
20260509210003 73 166 4.0 12.0 0.00 0.00 0.00 44 1006.7
20260509205403 73 158 4.0 10.0 0.00 0.00 0.00 44 1006.5
20260509204503 73 198 5.0 10.0 0.00 0.00 0.00 44 1006.7
20260509203603 73 181 5.0 15.0 0.00 0.00 0.00 44 1006.6
20260509202703 74 222 7.0 16.0 0.00 0.00 0.00 44 1006.5
20260509201803 74 173 6.0 16.0 0.00 0.00 0.00 43 1006.5
20260509200903 74 161 4.0 10.0 0.00 0.00 0.00 43 1006.4
20260509200003 73 187 6.0 12.0 0.00 0.00 0.00 43 1006.7
20260509195403 74 189 6.0 11.0 0.00 0.00 0.00 44 1006.7
20260509194503 73 183 7.0 13.0 0.00 0.00 0.00 44 1006.9
20260509193624 73 180 7.0 14.0 0.00 0.00 0.00 41 1007.0
20260509192703 74 185 7.0 18.0 0.00 0.00 0.00 41 1007.1
20260509191803 74 185 7.0 16.0 0.00 0.00 0.00 42 1007.2
20260509190903 74 150 5.0 11.0 0.00 0.00 0.00 46 1007.2
20260509190024 73 163 5.0 14.0 0.00 0.00 0.00 44 1007.2
20260509185403 72 173 4.0 11.0 0.00 0.00 0.00 47 1007.3
20260509184524 72 170 5.0 15.0 0.00 0.00 0.00 46 1007.5
20260509183603 72 166 4.0 11.0 0.00 0.00 0.00 48 1007.7
20260509182724 72 184 4.0 10.0 0.00 0.00 0.00 49 1007.8
20260509181803 71 177 6.0 11.0 0.00 0.00 0.00 47 1007.9
20260509180903 71 187 5.0 10.0 0.00 0.00 0.00 52 1008.1
20260509180003 70 184 6.0 10.0 0.00 0.00 0.00 52 1008.1
20260509175403 69 184 5.0 10.0 0.00 0.00 0.00 50 1008.4
20260509174503 69 178 4.0 9.0 0.00 0.00 0.00 53 1008.6
20260509173603 69 163 4.0 10.0 0.00 0.00 0.00 50 1008.7
20260509172703 68 166 5.0 11.0 0.00 0.00 0.00 52 1008.8
20260509171824 68 196 5.0 10.0 0.00 0.00 0.00 52 1008.9
20260509170903 68 194 6.0 12.0 0.00 0.00 0.00 50 1008.9
20260509170024 68 219 6.0 13.0 0.00 0.00 0.00 54 1008.9
20260509165403 68 199 6.0 11.0 0.00 0.00 0.00 53 1009.0
20260509164503 69 192 4.0 8.0 0.00 0.00 0.00 51 1008.9
20260509163603 68 195 5.0 10.0 0.00 0.00 0.00 52 1009.0
20260509162703 68 188 5.0 12.0 0.00 0.00 0.00 54 1008.9
20260509161803 68 187 6.0 12.0 0.00 0.00 0.00 57 1008.9
20260509160903 67 170 4.0 10.0 0.00 0.00 0.00 57 1008.9
20260509160024 67 188 5.0 9.0 0.00 0.00 0.00 56 1009.0
20260509155403 67 182 5.0 10.0 0.00 0.00 0.00 57 1008.9
20260509154504 67 192 6.0 12.0 0.00 0.00 0.00 59 1008.9
20260509153604 66 192 7.0 13.0 0.00 0.00 0.00 56 1008.9
20260509152703 66 184 7.0 13.0 0.00 0.00 0.00 59 1008.9
20260509151803 66 178 6.0 13.0 0.00 0.00 0.00 58 1008.8
20260509150903 66 176 5.0 12.0 0.00 0.00 0.00 59 1008.8
20260509150024 66 169 6.0 11.0 0.00 0.00 0.00 59 1008.9
20260509145403 67 156 5.0 11.0 0.00 0.00 0.00 55 1009.0
20260509144503 66 157 4.0 11.0 0.00 0.00 0.00 59 1008.8
20260509143603 65 161 5.0 10.0 0.00 0.00 0.00 60 1008.8
20260509142703 64 168 4.0 11.0 0.00 0.00 0.00 63 1008.8
20260509141803 64 185 4.0 11.0 0.00 0.00 0.00 63 1009.2
20260509140903 63 191 4.0 10.0 0.00 0.00 0.00 63 1009.5
20260509140004 63 174 4.0 11.0 0.00 0.00 0.00 62 1009.7
20260509135403 62 179 4.0 9.0 0.00 0.00 0.00 63 1009.8
20260509134503 62 180 5.0 9.0 0.00 0.00 0.00 62 1009.9
20260509133603 61 181 5.0 11.0 0.00 0.00 0.00 65 1009.9
20260509132703 60 173 4.0 11.0 0.00 0.00 0.00 64 1010.1
20260509131803 60 164 2.0 6.0 0.00 0.00 0.00 69 1010.0
20260509130903 59 149 2.0 5.0 0.00 0.00 0.00 69 1010.1
20260509130003 58 130 1.0 4.0 0.00 0.00 0.00 70 1010.0
20260509125403 58 137 1.0 4.0 0.00 0.00 0.00 70 1010.0
20260509124503 57 146 1.0 4.0 0.00 0.00 0.00 73 1009.8
20260509123624 57 142 1.0 4.0 0.00 0.00 0.00 75 1010.0
20260509122703 56 156 1.0 3.0 0.00 0.00 0.00 75 1010.1
20260509121803 56 145 2.0 4.0 0.00 0.00 0.00 73 1010.2
20260509120924 55 156 1.0 4.0 0.00 0.00 0.00 73 1010.1
20260509120024 55 201 1.0 4.0 0.00 0.00 0.00 75 1010.1
20260509115403 54 168 1.0 2.0 0.00 0.00 0.00 76 1010.1
20260509114503 54 142 1.0 2.0 0.00 0.00 0.00 75 1010.2
20260509113603 54 142 1.0 2.0 0.00 0.00 0.00 74 1010.3
20260509112703 54 142 0.0 2.0 0.00 0.00 0.00 74 1010.3
20260509111803 53 145 0.0 1.0 0.00 0.00 0.00 74 1010.3
20260509110903 53 145 0.0 2.0 0.00 0.00 0.00 74 1010.1
20260509110003 52 166 2.0 4.0 0.00 0.00 0.00 73 1010.1
20260509105424 52 167 2.0 4.0 0.00 0.00 0.00 73 1010.1
20260509104503 52 112 0.0 1.0 0.00 0.00 0.00 77 1010.1
20260509103603 52 171 0.0 3.0 0.00 0.00 0.00 76 1010.1
20260509102703 52 175 0.0 2.0 0.00 0.00 0.00 76 1010.2
20260509101803 52 0 0.0 0.0 0.00 0.00 0.00 78 1010.2
20260509100903 52 0 0.0 0.0 0.00 0.00 0.00 76 1010.2
20260509100004 52 0 0.0 0.0 0.00 0.00 0.00 74 1010.1
20260509095403 52 0 0.0 0.0 0.00 0.00 0.00 72 1010.1
20260509094503 52 173 0.0 1.0 0.00 0.00 0.00 70 1010.2
20260509093603 52 166 0.0 2.0 0.00 0.00 0.00 70 1010.3
20260509092703 53 155 1.0 2.0 0.00 0.00 0.00 71 1010.3
20260509091824 53 177 1.0 3.0 0.00 0.00 0.00 71 1010.4
20260509090924 53 176 1.0 2.0 0.00 0.00 0.00 73 1010.4
20260509090024 53 171 1.0 3.0 0.00 0.00 0.00 72 1010.4
20260509085403 53 172 1.0 4.0 0.00 0.00 0.00 72 1010.4
20260509084503 53 150 1.0 3.0 0.00 0.00 0.00 72 1010.5
20260509083624 53 126 1.0 2.0 0.00 0.00 0.00 71 1010.4
20260509082724 53 158 1.0 2.0 0.00 0.00 0.00 72 1010.4
20260509081803 53 172 1.0 4.0 0.00 0.00 0.00 68 1010.5
20260509080903 53 182 1.0 3.0 0.00 0.00 0.00 70 1010.5
20260509080003 53 0 0.0 0.0 0.00 0.00 0.00 71 1010.6
20260509075403 53 136 1.0 4.0 0.00 0.00 0.00 72 1010.6
20260509074503 53 148 2.0 5.0 0.00 0.00 0.00 72 1010.7
20260509073624 53 113 1.0 4.0 0.00 0.00 0.00 71 1010.7
20260509072703 52 86 1.0 4.0 0.00 0.00 0.00 70 1011.0
20260509071803 52 126 0.0 2.0 0.00 0.00 0.00 74 1011.1
20260509070903 52 126 1.0 2.0 0.00 0.00 0.00 74 1011.1
20260509070024 51 126 1.0 3.0 0.00 0.00 0.00 76 1011.0
20260509065403 51 151 1.0 3.0 0.00 0.00 0.00 76 1011.0
20260509064504 50 172 1.0 2.0 0.00 0.00 0.00 79 1011.2
20260509063624 50 172 1.0 4.0 0.00 0.00 0.00 80 1011.2
20260509062724 50 172 1.0 2.0 0.00 0.00 0.00 80 1011.3
20260509061803 49 164 2.0 4.0 0.00 0.00 0.00 80 1011.5
20260509060924 49 142 2.0 6.0 0.00 0.00 0.00 81 1011.5
20260509060004 48 143 1.0 3.0 0.00 0.00 0.00 84 1011.5
20260509055403 48 157 1.0 3.0 0.00 0.00 0.00 84 1011.6
20260509054503 47 152 2.0 4.0 0.00 0.00 0.00 86 1011.5
20260509053603 47 129 1.0 2.0 0.00 0.00 0.00 85 1011.7
20260509052703 48 141 1.0 3.0 0.00 0.00 0.00 84 1011.7
20260509051803 48 132 1.0 3.0 0.00 0.00 0.00 84 1011.6
20260509050903 48 181 1.0 3.0 0.00 0.00 0.00 83 1011.7
20260509050025 47 168 1.0 3.0 0.00 0.00 0.00 82 1011.6
20260509045403 47 198 2.0 4.0 0.00 0.00 0.00 81 1011.5
20260509044503 48 159 2.0 4.0 0.00 0.00 0.00 80 1011.5
20260509043603 49 122 3.0 5.0 0.00 0.00 0.00 80 1011.3
20260509042703 49 123 2.0 6.0 0.00 0.00 0.00 77 1011.5
20260509041803 49 145 1.0 6.0 0.00 0.00 0.00 77 1011.2
20260509040903 50 184 0.0 2.0 0.00 0.00 0.00 79 1011.5
20260509040004 50 195 1.0 2.0 0.00 0.00 0.00 78 1011.6
20260509035403 50 210 1.0 2.0 0.00 0.00 0.00 77 1011.6
20260509034503 51 168 1.0 3.0 0.00 0.00 0.00 75 1011.6
20260509033603 51 164 1.0 3.0 0.00 0.00 0.00 73 1011.5
20260509032724 51 163 1.0 5.0 0.00 0.00 0.00 74 1011.6
20260509031803 51 164 2.0 5.0 0.00 0.00 0.00 74 1011.5
20260509030903 51 155 1.0 4.0 0.00 0.00 0.00 77 1011.5
20260509030004 51 167 1.0 2.0 0.00 0.00 0.00 77 1011.6
20260509025424 51 140 0.0 2.0 0.00 0.00 0.00 77 1011.7
20260509024503 51 143 1.0 3.0 0.00 0.00 0.00 76 1011.6
20260509023603 52 161 1.0 2.0 0.00 0.00 0.00 76 1011.6
20260509022703 52 187 0.0 2.0 0.00 0.00 0.00 74 1011.8
20260509021803 52 212 1.0 2.0 0.00 0.00 0.00 74 1011.7
20260509020903 53 223 0.0 3.0 0.00 0.00 0.00 70 1011.7
20260509020004 54 223 0.0 1.0 0.00 0.00 0.00 68 1011.5